Вернуться в каталог

STARLINK-5925

АктивенСвязьVLEO
NORAD 55945·PAYLOAD·🇺🇸 United States

Запущен Mar 17, 2023 с Vandenberg Space Force Base

Loading…

Ближайшие Пролёты (ближайшие 24 часа)

TLE

СвежийSource: CelesTrak SupGP

Эпоха: Sep 15, 2026, 01:43 UTC

1 55945C 23037AH  26258.07201389  .00008872  00000+0  74342-3 0  2581
2 55945  70.0013 166.8761 0002845 273.4345 309.5618 14.98329552    14

Отслеживайте STARLINK-5925 в реальном времени с AllMySat

Download on the App Store